Probability
0 0 0 0 0 0 0 0 0 0 0 0 0 0 0 0 0 0 0 0 0 0 1 2 3 2 1 0 0 0 0 0 0 0 0 0 0 0 0 0 0 0 0 0
0 0 0 0 0 0 0 0 0 0 0 0 0 0 0 0 0 0 0 0 0 0 0 1 2 2 1 0 0 0 0 0 0 0 0 0 0 0 0 0 0 0 0 0
0 0 0 0 0 0 0 0 0 0 0 0 0 0 0 0 0 0 0 0 0 0 0 0 1 2 2 1 0 0 0 0 0 0 0 0 0 0 0 0 0 0 0 0
0 0 0 0 0 0 0 0 0 0 0 0 0 0 0 0 0 0 0 0 0 0 0 0 1 2 3 2 1 0 0 0 0 0 0 0 0 0 0 0 0 0 0 0
0 0 0 0 0 0 0 0 0 0 0 0 0 0 0 0 0 0 0 0 0 0 0 0 1 2 3 2 1 0 0 0 0 0 0 0 0 0 0 0 0 0 0 0
0 0 0 0 0 0 0 0 0 0 0 0 0 0 0 0 0 0 0 0 0 0 0 0 0 1 3 2 1 0 0 0 0 0 0 0 0 0 0 0 0 0 0 0
0 0 0 0 0 0 0 0 0 0 0 0 0 0 0 0 0 0 0 0 0 0 0 0 0 1 2 3 2 0 0 0 0 0 0 0 0 0 0 0 0 0 0 0
0 0 0 0 0 0 0 0 0 0 0 0 0 0 0 0 0 0 0 0 0 0 0 0 0 1 3 4 3 1 0 0 0 0 0 0 0 0 0 0 0 0 0 0
0 0 0 0 0 0 0 0 0 0 0 0 0 0 0 0 0 0 0 0 0 0 0 0 1 2 3 4 4 1 0 0 0 0 0 0 0 0 0 0 0 0 0 0
0 0 0 0 0 0 0 0 0 0 0 0 0 0 0 0 0 0 0 0 0 0 0 0 1 2 3 3 2 1 0 0 0 0 0 0 0 0 0 0 0 0 0 0
0 0 0 0 0 0 0 0 0 0 0 0 0 0 0 0 0 0 0 0 0 0 0 0 0 1 2 2 1 0 0 0 0 0 0 0 0 0 0 0 0 0 0 0
0 0 0 0 0 0 0 0 0 0 0 0 0 0 0 0 0 0 0 0 0 0 0 0 0 0 1 1 0 0 0 0 0 0 0 0 0 0 0 0 0 0 0 0
0 0 0 0 0 0 0 0 0 0 0 0 0 0 0 0 0 0 0 0 0 0 0 0 0 0 0 0 0 0 0 0 1 0 0 0 0 0 0 0 0 0 0 0
0 0 0 0 0 0 0 0 0 0 0 0 0 0 0 0 0 0 0 0 0 0 0 0 0 0 0 0 0 0 0 0 0 0 0 0 0 0 0 0 0 0 0 0
0 0 0 0 0 0 0 0 0 0 0 0 0 0 0 0 0 0 0 0 0 0 0 0 0 0 0 0 0 0 0 0 0 0 0 0 0 0 0 0 0 0 0 0
0 0 0 0 0 0 0 0 0 0 0 0 0 0 0 0 0 0 0 0 0 0 0 0 0 0 0 0 0 0 0 0 0 0 0 0 0 0 0 0 0 0 0 0
0 0 0 0 0 0 0 0 0 0 0 0 0 0 0 0 0 0 0 0 0 0 0 0 0 0 0 0 0 0 0 0 0 0 0 0 0 0 0 0 0 0 0 0
0 0 0 0 0 0 0 0 0 0 0 0 0 0 0 0 0 0 0 0 0 0 0 0 0 0 0 0 0 0 0 0 0 0 0 0 0 0 0 0 0 0 0 0
0 0 0 0 0 0 0 0 0 0 0 0 0 0 0 0 0 0 0 0 0 0 0 0 0 0 0 0 0 0 0 0 0 0 0 0 0 0 0 0 0 0 0 0
0 0 0 0 0 0 0 0 0 0 0 0 0 0 0 0 0 0 0 0 0 0 0 0 0 0 0 0 0 0 0 0 0 0 0 0 0 0 0 0 0 0 0 0
0 0 0 0 0 0 0 0 0 0 0 0 0 0 0 0 0 0 0 0 0 0 0 0 0 0 0 0 0 0 0 0 0 0 0 0 0 0 0 0 0 0 0 0
0 0 0 0 0 0 0 0 0 0 0 0 0 0 0 0 0 0 0 0 0 0 0 0 0 0 0 0 0 0 0 0 0 0 0 0 0 0 0 0 0 0 0 0
0 0 0 0 0 0 0 0 0 0 0 0 0 0 0 0 0 0 0 0 0 0 0 0 0 0 0 0 0 0 0 0 0 0 0 0 0 0 0 0 0 0 0 0
0 0 0 0 0 0 0 0 0 0 0 0 0 0 0 0 0 0 0 0 0 0 0 0 0 0 0 0 0 0 0 0 0 0 0 0 0 0 0 0 0 0 0 0
0 0 0 0 0 0 0 0 0 0 0 0 0 0 0 0 0 0 0 0 0 0 0 0 0 0 0 0 0 0 0 0 0 0 0 0 0 0 0 0 0 0 0 0
0 0 0 0 0 0 0 0 0 0 0 0 0 0 0 0 0 0 0 0 0 0 0 0 0 0 0 0 0 0 0 0 0 0 0 0 0 0 0 0 0 0 0 0
0 0 0 0 0 0 0 0 0 0 0 0 0 0 0 0 0 0 0 0 0 0 0 0 0 0 0 0 0 0 0 0 0 0 0 0 0 0 0 0 0 0 0 0
Wind_Speed
4 3 3 4 5 7 7 7 8 7 7 9 7 5 5 5 6 7 7 8 10 10 9 8 8 8 8 7 7 7 7 7 6 5 4 4 4 3 3 3 3 3 3 3
1 2 3 3 4 7 7 5 6 5 8 8 5 2 2 5 7 8 9 10 10 10 10 10 10 10 9 8 8 8 8 7 6 6 5 5 4 4 4 3 3 3 3 3
2 1 1 4 6 6 4 4 6 7 9 5 2 4 5 6 8 10 10 10 11 11 11 11 11 11 11 9 8 8 8 7 7 7 6 5 5 4 4 3 3 3 2 2
2 2 4 7 3 4 5 4 5 6 6 5 6 5 3 5 7 8 9 9 10 10 9 8 8 8 8 8 9 9 8 7 7 7 7 6 5 5 4 3 3 3 2 2
3 3 5 6 2 4 4 4 4 5 5 3 1 2 3 3 6 8 9 8 8 9 8 8 9 10 10 9 8 8 8 8 8 8 8 7 6 5 4 3 3 2 2 2
4 4 5 7 4 2 4 3 4 4 4 2 3 1 5 4 3 4 4 5 6 7 7 8 9 10 11 10 9 10 9 9 8 8 9 8 7 5 3 3 3 3 2 2
4 4 6 6 2 3 4 7 3 3 3 4 5 6 5 2 2 3 4 4 6 7 8 8 9 11 11 10 10 9 8 8 8 8 8 7 6 4 4 4 3 3 2 1
5 3 7 3 4 5 7 3 1 2 2 4 4 2 1 1 1 3 4 4 6 6 6 6 9 11 10 10 8 7 8 8 7 7 6 6 6 5 4 5 4 3 2 1
8 7 4 2 4 4 2 2 2 2 2 3 2 2 1 0 1 2 4 4 5 5 6 5 7 10 11 8 7 9 8 8 7 6 5 6 7 6 4 4 4 3 3 2
2 4 3 2 2 2 2 3 3 2 1 2 2 1 1 1 1 1 2 4 4 6 6 5 6 6 7 7 9 9 9 7 7 7 5 5 4 5 5 5 4 4 4 3
2 4 3 3 2 3 2 1 0 1 1 2 2 1 1 1 2 2 2 3 4 5 6 5 5 5 5 7 9 9 8 7 6 6 6 5 4 4 5 6 7 6 5 5
5 5 4 5 4 2 1 1 1 1 1 1 2 2 1 1 1 2 2 3 3 4 4 4 5 5 6 7 9 10 7 7 6 5 4 4 4 1 2 3 5 6 6 5
4 2 3 3 2 1 2 2 2 2 3 1 0 1 2 1 1 2 2 3 4 5 5 5 5 6 6 7 8 9 8 7 6 6 5 5 5 4 3 1 1 3 4 5
2 1 1 2 2 2 1 0 1 1 1 1 1 1 2 2 1 2 2 3 3 4 4 4 5 5 5 7 7 7 7 8 7 6 6 6 5 5 4 4 3 2 3 4
3 2 3 2 1 1 1 2 3 2 1 1 1 2 2 2 2 2 1 2 3 3 3 4 4 4 5 6 7 7 6 5 5 5 5 5 4 4 4 4 3 3 1 2
2 1 0 1 1 0 1 2 2 1 1 0 1 1 1 2 2 2 2 3 4 4 4 4 4 4 5 6 6 5 5 8 7 5 4 4 4 4 4 4 4 3 4 3
3 2 2 2 2 2 2 3 4 3 2 2 2 2 2 2 2 1 1 2 3 3 4 4 4 3 5 6 6 5 4 6 8 5 5 5 5 5 5 4 4 4 5 5
4 5 4 4 4 3 3 2 2 2 3 3 2 2 3 3 3 3 2 1 1 1 1 2 2 3 4 5 5 4 4 4 5 5 5 5 4 4 4 4 5 5 3 3
2 2 2 3 3 3 3 2 2 2 1 2 3 3 3 3 3 2 2 3 2 1 2 2 4 4 4 5 5 4 4 5 4 4 4 5 4 4 4 4 4 4 4 3
1 1 1 1 1 2 2 1 1 1 1 1 2 2 1 1 2 2 3 2 3 3 2 2 3 3 3 4 6 4 4 5 5 4 4 4 4 4 4 4 4 4 4 4
1 0 0 0 0 0 1 1 2 1 1 2 3 3 3 2 2 2 3 1 2 1 2 3 2 2 3 4 5 4 4 4 4 4 4 4 4 4 3 4 4 4 4 4
1 1 1 1 0 1 1 0 1 1 1 1 1 2 2 2 2 1 2 3 2 2 2 2 2 3 4 5 3 4 4 4 3 3 3 3 4 4 4 4 4 4 4 3
1 1 1 1 1 1 1 1 0 1 2 2 2 2 3 2 2 3 2 2 1 2 2 2 3 4 5 3 3 3 3 3 3 3 3 3 3 4 4 4 4 3 3 3
1 1 1 1 1 1 0 1 1 0 1 1 1 2 3 2 1 1 2 2 2 2 2 3 4 5 5 3 3 3 3 2 2 2 2 2 2 2 2 3 3 3 3 3
1 1 1 2 2 1 1 0 1 1 1 1 1 0 1 2 2 2 1 2 2 2 2 3 5 5 3 2 3 2 2 2 2 2 2 2 2 2 2 2 2 2 3 3
1 1 1 2 2 2 2 1 1 0 1 0 1 1 0 0 1 1 1 1 2 2 2 2 2 3 2 2 2 2 2 2 2 2 2 2 1 1 1 2 2 2 2 3
1 0 1 0 0 1 1 2 2 1 1 2 1 1 0 1 1 2 2 2 2 2 2 2 2 2 2 2 2 2 2 2 1 1 1 1 1 1 1 2 2 2 2 2
Wind_Direction
224 213 172 197 196 180 184 189 194 231 240 262 266 247 226 196 179 175 181 184 187 187 186 182 178 177 175 173 169 163 158 161 170 165 154 144 139 136 130 128 127 122 110 97
259 219 197 239 231 199 207 203 219 247 263 262 267 248 216 192 182 188 193 194 192 188 186 186 183 180 176 176 173 164 165 170 164 154 151 151 149 140 133 127 121 118 119 117
239 285 98 261 236 202 195 197 188 221 247 271 281 247 220 203 195 197 199 196 192 189 189 191 187 180 180 177 165 165 169 168 164 160 160 161 153 143 144 143 134 131 133 128
154 120 221 240 235 186 187 215 207 230 251 244 235 246 235 201 197 207 201 196 195 189 186 184 176 172 167 159 163 168 170 171 169 163 164 159 153 157 157 146 148 153 155 158
134 185 268 293 264 177 180 248 224 224 253 273 282 35 319 243 209 209 204 199 194 185 177 169 167 164 156 160 164 169 176 177 174 166 162 162 166 170 164 153 158 162 162 164
135 166 227 250 267 208 129 268 265 208 235 230 106 78 274 267 224 215 194 184 175 163 154 162 166 157 158 165 169 181 184 179 172 166 166 170 173 168 162 161 167 161 160 177
159 200 251 255 270 113 144 240 259 203 211 181 186 212 245 257 227 195 171 166 156 156 165 171 163 158 164 169 185 187 170 162 163 167 168 166 160 157 154 152 147 155 165 186
152 181 249 255 134 170 215 237 230 210 206 203 224 247 266 241 194 157 147 148 152 157 164 161 160 161 168 184 184 156 152 156 163 164 165 156 151 152 151 150 151 163 167 205
182 204 233 197 198 229 205 207 228 218 228 197 200 225 242 204 136 144 149 149 147 147 147 154 165 167 176 182 154 149 151 158 160 156 157 155 157 158 154 158 164 176 180 202
214 261 265 262 270 286 236 229 237 211 200 170 184 195 185 140 129 137 139 144 140 139 147 161 170 177 176 156 152 152 156 158 157 156 156 155 159 164 166 173 179 184 191 206
233 277 312 301 272 271 272 284 324 57 133 163 160 177 187 177 174 168 155 146 148 156 163 169 164 166 156 152 152 153 156 157 159 162 162 165 171 181 183 194 190 188 198 197
214 222 202 245 268 266 240 258 215 149 60 77 160 180 169 188 182 160 158 146 150 157 159 164 160 161 159 159 158 155 156 163 166 164 164 164 166 169 219 206 213 208 200 193
223 241 216 249 281 257 215 233 208 179 170 170 157 148 142 149 157 141 150 156 170 174 168 164 160 164 165 163 162 165 168 171 169 168 169 172 174 175 186 258 225 212 210 207
234 152 239 259 264 271 235 203 117 97 109 136 124 98 115 112 115 137 175 188 170 157 157 160 161 172 169 163 166 171 168 171 170 175 176 177 181 184 180 180 197 242 242 225
242 216 221 249 294 2 66 88 83 64 51 45 80 109 129 143 167 191 182 140 130 137 155 159 166 179 162 162 166 170 169 173 173 171 173 176 174 174 180 186 194 204 214 240
242 243 202 203 219 214 102 119 138 193 194 163 144 166 182 174 162 146 139 143 148 168 180 174 187 188 167 164 165 169 177 179 168 165 168 171 172 177 184 191 197 202 211 215
169 208 216 235 240 230 214 204 200 203 194 190 205 190 145 126 116 134 174 179 179 185 185 183 193 179 170 169 167 169 167 174 171 165 175 180 182 187 190 192 201 212 223 216
204 210 204 200 207 218 235 228 212 206 204 205 171 142 148 160 182 201 198 144 117 112 213 198 177 164 167 167 165 162 163 167 171 177 180 183 185 187 187 195 205 215 228 221
212 223 227 222 218 204 211 218 217 216 210 159 147 164 183 190 191 181 150 135 143 208 258 213 170 162 172 177 161 157 162 164 168 175 179 181 181 185 190 199 209 215 213 210
172 179 185 207 193 179 189 201 187 165 172 161 147 136 148 199 179 158 147 171 213 221 214 176 162 167 177 179 163 157 163 166 171 174 175 178 186 194 198 202 207 211 214 216
165 170 143 185 284 275 183 167 158 166 176 163 165 177 194 208 178 157 150 213 268 235 169 160 154 169 175 168 160 156 162 166 172 177 180 185 190 194 198 203 208 213 218 224
193 181 213 212 145 323 314 242 172 164 154 157 162 164 157 161 164 168 199 213 222 186 155 158 162 169 164 154 151 156 162 165 171 174 179 185 190 196 201 206 211 217 221 224
207 203 201 196 191 236 325 347 175 169 177 186 182 181 182 194 184 171 230 254 198 182 162 174 171 160 155 147 149 155 159 163 170 179 187 190 195 199 202 208 214 218 224 230
198 199 204 181 129 110 41 324 335 329 166 192 200 192 176 166 217 228 206 200 172 160 163 165 152 146 137 134 144 150 153 158 166 174 180 186 189 194 201 208 217 225 229 234
192 170 154 141 141 178 207 220 40 43 50 38 359 315 218 184 189 205 182 169 154 140 137 150 143 135 130 136 143 146 150 158 159 158 164 169 179 188 202 212 219 229 236 239
183 192 206 210 203 197 189 167 157 169 128 67 348 342 0 89 146 145 130 140 144 130 119 123 134 131 130 134 137 140 146 153 150 148 158 166 179 197 213 226 238 241 244 250
119 141 124 75 309 194 167 159 164 184 179 166 198 298 298 107 112 111 113 117 116 111 107 104 112 122 126 126 124 122 119 117 123 135 146 159 182 210 225 230 236 243 250 259